Wetbulb
35.00 35.86 35.41 34.00 33.67 34.82 29.82 31.93 26.94 30.68 31.87 35.26 37.41 38.03 39.36 40.11 40.17 38.66 38.04 37.97 38.18 38.67 39.86 41.07 41.89 42.77 43.13 43.16 43.37 44.14 44.04 44.91 46.35 51.83 53.38 53.11 53.01 53.16 52.97 53.07 52.78 52.82 52.56 52.44
29.35 34.70 34.53 31.98 34.48 34.68 34.68 34.61 33.60 33.93 32.98 39.88 39.04 40.85 39.75 39.24 39.03 37.70 37.62 37.70 38.20 38.54 38.86 39.57 41.19 41.72 42.64 42.94 43.04 43.57 42.89 42.90 45.55 49.62 49.23 50.46 50.48 50.27 49.34 48.91 48.55 50.47 50.84 50.29
25.32 32.22 31.74 26.24 31.84 33.06 33.76 35.77 35.33 30.63 35.00 36.82 36.89 38.95 38.27 38.43 38.61 37.49 37.62 37.70 37.62 37.80 38.53 38.89 39.46 41.35 41.43 41.45 42.04 42.22 42.41 42.98 44.11 45.87 45.42 46.58 48.05 46.60 45.72 45.55 45.88 46.20 46.72 47.46
26.41 28.12 19.74 30.99 37.23 36.76 35.02 36.58 37.32 37.04 37.61 38.49 37.82 38.49 39.13 39.32 36.69 36.57 36.99 37.16 37.48 37.14 37.63 38.61 39.57 39.65 40.12 41.24 40.52 40.94 41.25 42.02 42.88 43.28 42.70 43.01 43.80 44.98 44.19 44.32 44.22 44.17 44.02 44.61
24.36 22.69 28.31 31.55 33.70 33.64 32.86 33.08 37.90 37.10 38.28 39.04 39.03 37.73 37.73 40.55 39.05 36.50 35.72 37.03 37.68 38.36 38.14 37.59 37.97 38.51 38.24 38.32 39.24 38.96 40.11 40.92 42.40 42.90 42.21 42.13 41.59 41.91 43.06 43.22 42.94 43.11 43.21 43.12
26.48 22.30 21.09 29.03 35.33 38.49 37.49 27.54 38.08 38.88 38.37 37.36 37.98 30.55 34.30 39.04 38.82 38.30 37.73 38.30 37.68 38.15 38.11 36.81 37.39 38.10 36.72 36.27 37.27 37.63 38.35 39.36 40.99 42.22 42.89 42.43 42.51 42.21 42.50 42.65 41.89 41.82 41.41 42.40
25.25 23.28 27.91 34.56 37.11 38.45 24.95 29.30 37.87 38.26 37.71 37.12 34.86 35.93 38.52 39.32 38.44 39.03 38.64 37.57 38.14 37.60 36.40 36.37 37.34 37.28 35.38 34.55 34.42 37.43 37.95 38.18 38.73 39.23 39.70 40.41 40.91 41.91 41.89 41.24 40.72 40.10 39.88 40.14
25.53 22.94 20.32 37.67 36.36 31.41 35.30 37.53 38.71 37.84 36.72 36.95 38.07 39.15 39.10 38.67 38.39 38.55 38.25 38.84 38.41 37.37 36.97 36.90 36.97 36.20 34.77 33.44 35.32 36.29 37.20 36.98 36.61 36.82 37.95 38.75 37.89 37.88 38.21 37.81 36.98 36.31 36.23 36.41
29.22 28.57 35.51 38.31 37.22 39.41 39.87 37.95 38.16 39.18 39.59 39.54 38.86 38.63 39.38 38.65 38.26 38.33 38.41 38.70 38.85 37.27 36.86 36.97 36.36 35.45 33.90 34.03 35.26 34.95 33.82 33.47 34.04 35.43 35.93 36.22 34.70 34.94 34.83 35.52 35.09 34.69 34.43 33.49
29.56 31.71 32.27 35.03 37.55 38.12 38.93 39.59 40.64 40.99 40.83 40.33 38.50 39.05 38.96 38.86 38.57 38.36 38.42 38.04 38.67 37.78 36.79 36.39 36.36 36.20 34.60 34.80 35.15 34.30 32.08 31.38 31.57 32.30 32.83 32.69 34.04 33.91 32.53 32.33 32.41 32.79 32.85 32.13
29.15 32.91 34.63 34.08 34.40 35.33 36.72 37.91 39.47 40.83 41.46 40.69 39.69 39.26 39.25 38.90 38.91 38.72 38.61 38.52 38.48 37.61 37.07 37.07 37.17 36.44 35.57 35.30 34.72 33.70 32.62 31.90 31.15 31.45 31.51 30.24 31.78 31.42 30.89 32.00 34.08 32.32 32.00 32.04
26.59 32.90 31.68 32.16 34.27 36.90 35.21 35.66 37.15 37.93 39.67 41.33 41.08 39.82 39.96 39.01 39.34 39.17 38.40 38.45 37.73 37.52 37.36 37.55 37.38 36.62 36.42 35.65 34.48 32.99 32.32 31.73 30.21 29.40 29.52 31.06 29.94 28.95 35.18 35.17 35.80 36.48 37.03 34.20
32.96 33.71 34.07 34.50 35.39 35.43 34.73 36.33 37.10 37.64 38.22 38.33 41.20 40.98 40.63 39.44 39.61 41.02 39.38 38.83 37.94 37.54 37.73 37.86 37.69 36.93 36.95 35.91 34.49 33.11 30.93 30.37 29.23 29.44 28.55 28.46 28.78 28.31 25.86 29.42 34.24 34.80 35.10 34.54
35.47 32.53 31.35 32.85 32.56 33.97 34.42 35.24 37.23 38.26 38.67 38.98 39.46 41.64 41.34 40.38 40.29 39.96 39.13 39.22 38.96 38.54 38.18 38.16 37.83 37.19 37.39 36.20 34.13 32.20 31.29 35.37 28.72 27.85 28.02 28.45 27.99 28.11 28.21 26.56 26.14 26.55 32.03 32.22
33.22 33.98 33.13 33.43 33.48 33.71 34.59 34.59 33.75 33.82 36.04 38.04 39.26 40.54 40.65 39.82 39.50 39.72 39.92 39.94 39.65 38.70 38.25 38.10 37.43 37.25 37.66 36.33 33.93 31.96 31.01 29.98 27.96 27.65 28.05 29.29 27.56 27.19 27.00 26.94 26.57 25.98 26.15 29.80
32.09 32.61 32.66 32.11 32.83 33.21 33.32 33.30 32.68 33.27 35.82 37.98 38.78 39.43 40.39 40.51 40.27 40.29 40.35 39.88 38.35 38.00 38.58 38.06 37.60 38.41 37.47 36.26 33.69 31.85 30.90 33.48 32.62 28.02 27.83 27.84 26.94 26.23 26.04 26.17 25.70 25.36 25.62 26.23
29.23 29.16 29.91 30.05 31.61 31.58 32.39 33.89 34.87 35.15 36.90 37.55 38.50 40.02 40.27 40.05 39.51 39.08 39.61 40.04 40.00 39.96 39.41 38.44 38.38 37.60 37.88 36.78 34.64 33.31 31.63 30.56 34.84 29.48 27.40 27.60 27.04 26.37 26.30 26.30 26.15 26.03 26.29 28.30
33.46 33.11 32.46 32.00 31.50 31.41 32.26 34.26 34.90 35.78 35.51 36.38 36.97 37.29 37.48 37.43 37.46 38.03 38.24 38.93 38.22 37.78 38.57 38.41 38.51 37.75 37.70 36.99 35.31 33.90 32.26 30.97 29.88 29.63 28.08 27.21 27.13 27.21 26.43 26.34 26.27 25.46 26.31 27.81
33.25 32.78 33.45 34.47 33.68 33.45 33.94 34.55 35.07 35.68 35.99 36.27 36.04 35.59 36.13 36.69 37.10 37.25 37.55 36.74 36.15 35.81 39.05 37.44 37.94 37.62 36.66 36.62 35.72 33.34 31.96 29.79 28.63 28.50 27.77 29.56 27.86 27.07 25.90 25.54 25.36 25.42 25.97 26.95
32.67 34.19 34.53 34.49 35.09 34.81 34.18 34.99 35.01 34.58 35.43 35.51 35.27 34.98 34.74 35.49 36.22 36.04 35.75 35.41 38.46 39.86 39.53 37.10 36.73 36.22 36.13 34.98 37.87 33.25 32.08 30.40 29.39 28.46 27.99 26.61 26.77 27.03 26.70 28.34 25.70 25.21 25.40 25.98
33.10 33.53 33.82 34.10 34.04 33.93 34.48 34.61 34.05 32.95 33.67 33.96 33.16 33.13 33.48 34.34 34.24 33.50 32.39 31.84 37.12 35.94 36.64 36.79 35.34 36.03 35.82 35.65 36.13 33.72 32.07 30.86 29.71 28.40 27.13 27.96 26.60 26.77 26.16 26.01 26.08 25.82 25.49 26.01
31.62 31.89 31.29 31.38 31.22 31.20 31.77 32.10 32.61 32.13 31.50 31.03 31.11 31.20 31.20 31.64 31.46 31.35 32.73 34.32 36.93 38.58 34.52 33.22 33.31 36.06 34.95 37.61 33.95 33.44 31.93 30.76 29.97 28.38 26.52 26.67 26.25 25.79 25.36 25.75 25.05 25.42 25.32 25.64
27.45 28.38 31.08 30.03 28.19 28.83 30.72 30.51 30.46 30.57 30.36 30.82 30.90 30.63 30.56 31.80 31.86 30.40 31.11 32.74 33.89 35.20 34.65 32.71 34.54 37.08 38.24 36.01 34.21 32.75 32.56 31.62 30.39 28.94 27.14 26.81 26.96 27.17 26.70 25.85 25.68 26.51 27.19 26.30
31.62 31.99 31.66 31.89 30.98 28.71 27.25 29.43 26.42 29.84 30.55 30.96 30.35 29.65 29.24 29.68 31.33 29.53 32.57 36.21 37.29 36.80 35.12 33.48 35.18 38.14 38.53 34.45 32.89 32.98 32.75 31.20 29.53 29.06 28.82 30.34 27.96 27.38 27.09 27.38 28.01 28.35 26.67 28.51
31.61 29.53 26.83 25.98 28.47 29.11 28.93 29.82 28.34 27.92 29.07 28.12 28.81 29.97 30.91 29.01 30.52 33.16 32.04 31.84 34.71 34.51 32.94 35.19 37.74 37.88 35.60 34.99 33.40 32.31 31.96 31.08 30.61 30.21 29.71 29.68 28.96 29.01 28.74 28.46 28.57 27.03 26.52 24.55
30.34 31.11 30.92 30.50 30.46 30.46 30.55 30.09 29.32 29.56 29.51 29.14 29.79 29.89 29.96 30.21 30.30 32.18 30.15 32.11 30.09 32.34 30.98 29.32 28.81 30.35 33.76 34.35 33.07 31.76 31.28 31.32 31.64 31.10 30.66 30.50 30.59 30.02 29.55 28.61 27.85 27.60 25.99 24.32
29.48 33.21 30.58 30.23 30.63 30.95 30.22 29.94 28.76 28.95 30.42 29.36 29.52 30.73 30.68 32.40 32.65 33.12 33.36 32.46 31.92 30.54 28.99 30.65 32.21 33.16 32.07 32.14 31.76 31.57 31.63 31.59 32.16 31.58 31.56 30.86 30.50 29.83 28.21 27.30 25.71 23.58 23.25 22.28
MSLP
1019.21 1018.42 1018.00 1017.67 1017.69 1017.89 1018.24 1018.11 1018.23 1016.54 1016.18 1015.60 1015.57 1016.01 1016.52 1016.76 1016.89 1016.63 1016.11 1015.48 1014.99 1014.54 1013.92 1012.89 1012.12 1011.50 1010.91 1010.25 1009.65 1009.11 1008.58 1008.32 1007.96 1007.45 1007.00 1006.74 1007.04 1007.24 1007.24 1007.28 1007.37 1007.51 1007.49 1007.43
1018.74 1017.70 1017.34 1016.68 1016.28 1016.32 1016.66 1016.71 1016.48 1015.88 1014.98 1014.38 1014.68 1015.27 1015.85 1016.20 1016.50 1016.22 1016.08 1015.64 1015.21 1014.83 1014.39 1013.67 1013.07 1012.60 1012.09 1011.47 1010.68 1010.02 1009.45 1009.07 1008.47 1008.05 1007.86 1007.81 1007.64 1007.90 1007.98 1008.12 1007.96 1007.90 1007.92 1008.10
1018.66 1017.48 1016.91 1015.76 1014.29 1014.43 1014.81 1014.75 1014.78 1014.80 1013.92 1013.83 1014.21 1014.71 1015.31 1015.72 1016.06 1016.09 1016.08 1015.84 1015.37 1015.05 1014.74 1014.24 1013.76 1013.20 1012.73 1012.42 1011.75 1010.91 1010.27 1009.80 1009.38 1009.13 1008.90 1008.64 1008.62 1008.77 1008.74 1008.70 1008.58 1008.42 1008.11 1008.74
1019.11 1017.83 1016.48 1014.01 1013.40 1013.48 1013.66 1013.41 1013.42 1013.29 1013.00 1013.21 1013.54 1014.15 1014.83 1015.30 1015.73 1015.92 1016.00 1016.00 1015.61 1015.19 1014.95 1014.79 1014.20 1013.66 1013.41 1012.97 1012.57 1011.95 1011.24 1010.78 1010.47 1010.09 1009.95 1009.86 1009.27 1009.46 1009.57 1009.47 1009.35 1009.30 1009.43 1009.71
1019.48 1018.40 1015.97 1013.44 1013.49 1013.31 1013.32 1012.55 1011.96 1012.18 1012.37 1012.86 1013.49 1014.21 1014.45 1014.62 1015.23 1015.61 1015.71 1015.80 1015.78 1015.45 1015.09 1014.85 1014.56 1014.07 1013.73 1013.36 1013.13 1012.74 1012.04 1011.62 1011.32 1011.02 1010.86 1010.93 1010.53 1010.27 1010.32 1010.24 1010.00 1010.03 1010.09 1010.62
1019.57 1018.81 1016.35 1013.68 1013.10 1012.97 1012.98 1012.47 1011.22 1011.31 1011.90 1012.70 1013.60 1014.66 1014.40 1014.45 1014.90 1015.19 1015.35 1015.49 1015.54 1015.30 1015.21 1015.04 1014.66 1014.34 1014.16 1014.02 1013.63 1013.28 1012.96 1012.59 1012.16 1011.78 1011.55 1011.45 1011.30 1011.16 1011.20 1011.03 1010.82 1010.47 1011.14 1011.51
1020.00 1018.69 1015.64 1013.21 1013.03 1013.03 1013.10 1012.52 1011.36 1011.36 1011.61 1012.30 1013.27 1013.55 1013.80 1014.18 1014.60 1014.77 1015.02 1015.26 1015.37 1015.32 1015.36 1015.20 1014.91 1014.68 1014.84 1014.64 1014.28 1013.97 1013.60 1013.18 1012.87 1012.54 1012.21 1011.97 1011.83 1011.74 1011.75 1011.78 1011.60 1011.96 1012.18 1012.24
1018.81 1017.71 1015.26 1013.22 1013.41 1013.19 1012.21 1011.69 1011.58 1011.61 1011.77 1012.16 1012.62 1013.28 1013.72 1014.12 1014.45 1014.64 1014.83 1015.00 1015.08 1015.28 1015.24 1015.10 1015.01 1014.89 1015.02 1014.91 1014.56 1014.18 1013.89 1013.66 1013.35 1013.04 1012.70 1012.40 1012.35 1012.43 1012.45 1012.69 1013.02 1013.24 1013.33 1013.34
1016.18 1014.57 1013.04 1012.62 1012.25 1011.94 1011.82 1011.91 1011.75 1011.73 1011.90 1012.16 1012.64 1012.99 1013.30 1013.77 1014.17 1014.39 1014.56 1014.76 1014.90 1015.07 1015.01 1014.90 1014.92 1014.86 1014.93 1014.81 1014.55 1014.40 1014.31 1014.22 1014.00 1013.75 1013.58 1013.36 1013.25 1013.20 1013.24 1013.26 1013.30 1013.48 1013.56 1013.62
1015.36 1012.90 1012.50 1012.32 1012.07 1011.80 1011.64 1011.72 1011.70 1011.64 1011.72 1011.90 1012.34 1012.55 1012.87 1013.29 1013.67 1013.93 1014.13 1014.37 1014.59 1014.76 1014.81 1014.82 1014.73 1014.79 1014.88 1014.82 1014.63 1014.66 1014.70 1014.79 1014.70 1014.55 1014.47 1014.37 1014.14 1014.09 1013.99 1013.77 1013.49 1013.30 1013.29 1013.40
1014.42 1013.04 1012.44 1012.20 1011.85 1011.86 1011.85 1011.80 1011.71 1011.60 1011.64 1011.71 1011.92 1012.17 1012.41 1012.71 1013.01 1013.16 1013.39 1013.68 1013.96 1014.22 1014.40 1014.44 1014.42 1014.60 1014.70 1014.70 1014.70 1014.72 1014.71 1014.74 1014.77 1014.78 1014.86 1015.00 1014.99 1014.70 1014.56 1014.35 1013.93 1013.72 1013.70 1013.67
1013.46 1012.61 1012.57 1012.42 1012.27 1012.10 1012.29 1012.18 1011.90 1011.77 1011.55 1011.52 1011.72 1011.76 1011.99 1012.16 1012.25 1012.57 1012.85 1013.12 1013.42 1013.66 1013.93 1013.97 1014.00 1014.15 1014.33 1014.43 1014.60 1014.74 1014.82 1014.82 1014.89 1014.96 1014.99 1015.05 1015.20 1015.26 1015.00 1014.82 1014.59 1014.36 1014.12 1014.09
1012.38 1012.35 1012.61 1012.46 1012.18 1012.03 1012.10 1011.91 1011.58 1011.37 1011.23 1011.13 1010.94 1011.00 1011.24 1011.49 1011.53 1011.78 1012.15 1012.50 1012.77 1013.04 1013.30 1013.49 1013.62 1013.78 1013.97 1014.13 1014.42 1014.66 1014.79 1014.88 1014.96 1014.99 1014.97 1015.06 1015.13 1015.29 1015.40 1015.26 1015.04 1014.88 1014.71 1014.55
1011.90 1012.24 1012.26 1012.06 1011.97 1011.98 1012.16 1012.02 1011.75 1011.45 1011.22 1010.93 1010.60 1010.26 1010.30 1010.57 1010.78 1010.98 1011.21 1011.35 1011.71 1012.11 1012.41 1012.56 1012.71 1012.82 1012.95 1013.31 1013.79 1014.12 1014.26 1014.46 1014.68 1014.78 1014.79 1014.83 1014.95 1015.08 1015.21 1015.42 1015.38 1015.20 1014.95 1014.86
1011.69 1011.96 1012.05 1011.92 1011.93 1011.89 1011.86 1011.72 1011.45 1011.16 1010.91 1010.63 1010.16 1010.04 1010.14 1010.38 1010.52 1010.45 1010.59 1010.80 1011.10 1011.35 1011.37 1011.38 1011.52 1011.60 1011.78 1012.24 1012.85 1013.23 1013.48 1013.67 1013.93 1014.21 1014.39 1014.54 1014.72 1014.84 1014.96 1015.08 1015.09 1015.02 1015.13 1015.01
1011.35 1011.80 1011.97 1012.09 1011.75 1011.54 1011.40 1011.30 1011.29 1010.92 1010.57 1010.28 1009.98 1009.81 1009.74 1009.88 1009.99 1010.11 1010.17 1010.37 1010.76 1010.63 1010.52 1010.72 1010.92 1010.89 1011.33 1011.77 1012.30 1012.70 1012.98 1013.17 1013.42 1013.64 1013.92 1014.17 1014.41 1014.61 1014.76 1014.83 1014.87 1014.88 1014.90 1014.92
1011.49 1011.66 1012.02 1012.28 1012.24 1011.96 1011.64 1011.15 1010.74 1010.62 1010.55 1010.23 1009.93 1009.69 1009.56 1009.51 1009.54 1009.60 1009.66 1009.54 1009.49 1009.30 1009.14 1009.59 1009.69 1009.86 1010.06 1010.27 1010.72 1011.22 1011.72 1012.14 1012.51 1012.92 1013.25 1013.54 1013.85 1014.10 1014.23 1014.38 1014.40 1014.32 1014.31 1014.38
1011.15 1011.17 1011.35 1011.68 1011.77 1011.60 1011.38 1011.20 1010.90 1010.54 1010.32 1010.17 1010.09 1009.97 1009.96 1010.01 1009.92 1009.65 1009.57 1009.33 1009.16 1009.00 1008.83 1008.96 1008.73 1008.98 1009.14 1009.41 1009.92 1010.51 1011.12 1011.57 1011.95 1012.27 1012.64 1013.00 1013.35 1013.64 1013.90 1014.06 1014.17 1014.32 1014.36 1014.47
1011.04 1011.09 1011.05 1011.28 1011.52 1011.56 1011.40 1011.11 1010.87 1010.76 1010.54 1010.25 1010.12 1009.98 1009.75 1009.59 1009.41 1009.24 1009.04 1008.98 1008.73 1008.71 1007.93 1008.28 1008.24 1008.46 1008.74 1008.92 1009.41 1010.05 1010.59 1011.00 1011.40 1011.75 1012.12 1012.54 1012.93 1013.19 1013.47 1013.72 1013.92 1014.09 1014.21 1014.36
1011.45 1011.52 1011.30 1010.96 1010.83 1010.96 1011.01 1010.74 1010.68 1010.59 1010.45 1010.29 1010.22 1010.08 1009.78 1009.44 1009.26 1009.03 1008.83 1008.50 1007.71 1007.37 1007.20 1007.28 1007.34 1007.55 1007.59 1007.85 1008.28 1008.97 1009.49 1009.85 1010.23 1010.64 1011.14 1011.67 1012.12 1012.56 1012.92 1013.27 1013.57 1013.81 1013.96 1014.09
1011.34 1011.29 1011.44 1011.34 1011.00 1010.68 1010.86 1010.68 1010.49 1010.47 1010.27 1010.25 1010.23 1010.04 1009.72 1009.22 1009.01 1008.85 1008.54 1008.32 1006.78 1007.00 1006.78 1006.58 1006.71 1006.65 1006.84 1007.05 1007.45 1007.76 1008.05 1008.48 1008.98 1009.51 1010.06 1010.53 1011.20 1011.68 1012.13 1012.55 1012.90 1013.19 1013.39 1013.68
1010.68 1010.83 1010.90 1011.25 1011.35 1010.92 1010.64 1010.86 1010.79 1010.49 1010.13 1009.85 1009.74 1009.66 1009.50 1009.05 1008.72 1008.44 1007.96 1007.72 1006.59 1006.28 1006.40 1006.28 1006.24 1006.14 1006.44 1006.71 1007.13 1007.48 1007.88 1008.20 1008.54 1008.96 1009.42 1009.94 1010.43 1010.85 1011.19 1011.60 1012.04 1012.50 1012.86 1013.17
1010.64 1010.50 1010.45 1010.45 1010.65 1010.50 1010.51 1010.47 1010.63 1010.62 1010.18 1009.78 1009.42 1009.26 1009.17 1008.74 1008.34 1008.30 1007.40 1006.39 1006.21 1006.07 1005.97 1005.91 1005.68 1005.64 1005.73 1005.97 1006.29 1006.64 1007.11 1007.58 1007.96 1008.39 1008.92 1009.48 1009.96 1010.48 1010.94 1011.32 1011.60 1011.83 1012.16 1012.48
1010.46 1010.30 1010.17 1010.29 1010.21 1009.89 1009.75 1009.28 1009.61 1009.84 1009.73 1009.32 1009.09 1008.88 1008.73 1008.31 1007.56 1007.36 1007.04 1006.43 1006.05 1005.83 1005.56 1005.19 1004.94 1004.86 1005.09 1005.44 1005.69 1005.92 1006.24 1006.69 1007.25 1007.85 1008.37 1008.78 1009.24 1009.57 1009.94 1010.54 1011.13 1011.42 1011.69 1011.76
1010.00 1009.79 1009.89 1010.11 1010.15 1009.67 1009.25 1008.98 1008.98 1009.01 1008.95 1008.68 1008.31 1008.20 1008.15 1007.88 1007.80 1006.79 1006.45 1006.12 1005.84 1005.64 1005.32 1004.89 1004.46 1004.31 1004.43 1004.63 1004.96 1005.33 1005.68 1006.07 1006.60 1007.28 1007.87 1008.49 1008.85 1009.22 1009.63 1009.96 1010.38 1010.95 1011.32 1011.60
1009.34 1009.41 1009.03 1008.95 1009.09 1008.96 1008.68 1008.56 1008.64 1008.56 1008.46 1007.96 1007.63 1007.50 1007.39 1007.32 1007.13 1006.81 1006.28 1005.80 1005.45 1005.19 1004.92 1004.66 1004.41 1004.20 1004.15 1004.32 1004.72 1005.13 1005.61 1006.06 1006.41 1006.79 1007.24 1007.69 1008.23 1008.69 1009.25 1009.63 1010.04 1010.42 1010.91 1011.34
1008.27 1008.58 1008.50 1008.06 1008.01 1008.20 1008.21 1008.23 1008.24 1007.97 1007.82 1007.50 1007.07 1006.81 1006.77 1006.58 1006.27 1006.04 1005.76 1005.44 1005.15 1004.89 1004.57 1004.28 1003.95 1003.90 1004.01 1004.26 1004.70 1005.03 1005.36 1005.71 1006.03 1006.50 1006.98 1007.47 1007.95 1008.43 1008.95 1009.44 1009.81 1010.27 1010.74 1011.16
Wind_Speed
11 11 11 11 10 11 8 12 5 6 6 9 6 6 5 6 7 8 9 11 11 11 13 15 16 16 15 15 14 11 11 10 8 6 6 3 3 3 4 3 4 5 6 7
8 13 12 13 14 14 16 16 16 15 19 13 5 4 3 5 6 7 7 9 10 10 11 13 12 13 12 12 12 13 12 10 7 6 7 7 7 7 7 7 7 5 6 8
6 5 7 11 9 15 10 8 11 12 9 4 3 4 3 5 5 6 6 7 9 9 9 11 11 10 12 12 12 13 13 12 11 10 9 8 8 9 8 8 8 10 10 9
6 8 3 6 5 2 5 10 11 10 7 5 4 4 5 5 4 5 6 6 7 7 6 7 9 9 9 10 12 12 13 13 13 11 10 9 7 8 8 7 8 7 9 8
3 3 11 7 3 2 4 6 11 13 7 5 5 2 7 9 6 3 2 3 4 5 5 6 7 7 8 10 9 11 13 13 12 11 10 9 10 9 6 7 9 10 10 8
4 2 5 1 5 2 1 6 5 6 6 7 7 1 4 6 6 5 3 1 3 4 4 6 7 6 7 7 9 10 9 9 9 10 8 9 10 9 8 9 11 12 12 8
5 5 9 3 6 2 2 6 1 1 4 7 6 6 6 7 6 5 4 3 2 3 2 3 6 5 6 6 7 6 6 6 6 6 6 7 7 8 8 9 11 9 9 9
4 5 10 6 4 5 3 2 3 2 2 4 5 6 6 7 7 6 6 5 2 4 2 0 3 4 5 5 6 5 5 6 7 7 6 5 7 6 6 6 6 5 4 3
9 8 3 8 6 5 1 2 4 4 5 5 6 6 7 7 7 7 6 6 4 4 4 1 2 3 4 3 5 5 6 6 6 5 5 6 5 4 3 4 4 4 3 3
3 5 5 6 8 7 6 7 6 5 6 6 7 6 7 7 7 6 6 6 4 4 5 5 1 2 1 3 4 4 4 4 5 4 5 6 5 4 4 4 3 4 4 4
7 12 12 4 3 3 5 7 7 7 6 7 8 8 8 7 8 7 7 6 6 6 6 6 3 2 1 2 3 4 3 3 3 3 4 4 5 4 4 4 4 3 3 4
7 3 1 2 1 4 5 7 8 8 8 8 8 8 7 7 7 7 7 5 6 7 6 7 4 4 3 1 2 3 4 2 2 1 1 2 3 3 8 7 8 9 10 6
5 1 2 8 9 7 7 5 7 7 7 7 9 9 8 7 7 7 7 7 8 8 7 6 5 5 4 4 3 3 2 3 2 3 2 2 1 2 0 3 6 7 8 9
7 1 6 5 4 6 7 8 9 8 8 8 11 8 9 8 6 8 9 9 8 7 8 8 8 8 7 7 6 6 5 6 3 3 3 2 2 2 3 3 2 2 2 2
7 7 7 7 7 8 7 7 8 8 7 8 7 6 6 8 8 9 7 7 7 8 9 9 9 9 8 8 8 7 6 4 5 4 3 4 3 3 3 3 4 4 2 4
3 5 7 8 8 7 7 7 8 8 7 7 7 7 8 7 7 7 7 7 8 11 12 10 10 10 8 8 8 6 6 11 9 5 4 4 4 4 4 4 4 4 4 4
2 1 1 4 5 6 7 6 5 6 6 6 7 7 7 7 8 8 8 8 11 13 12 11 14 9 11 12 12 9 8 7 14 6 5 5 5 5 5 4 5 4 4 5
6 4 5 6 6 6 6 6 6 6 4 6 6 6 7 7 8 7 7 7 8 9 10 9 11 9 12 12 12 8 7 7 6 6 5 5 5 5 5 4 4 4 3 4
7 7 6 5 6 6 6 6 5 6 7 6 5 7 7 7 7 7 7 7 8 9 15 8 11 12 10 12 12 7 7 6 6 5 5 9 6 4 4 4 4 4 4 4
4 6 6 6 5 5 6 6 6 6 6 5 6 7 8 7 7 7 6 9 13 9 9 8 10 11 12 11 18 8 9 9 9 8 6 6 6 5 5 8 5 4 4 4
8 7 7 7 6 5 6 6 6 6 7 6 7 7 8 9 7 7 7 5 14 6 9 10 7 8 8 10 12 10 10 10 10 9 9 8 7 6 6 6 5 4 4 3
6 5 5 6 6 7 6 6 6 7 7 7 7 7 7 10 7 7 8 10 10 9 5 5 5 10 8 14 7 9 9 9 8 7 6 7 7 6 6 6 6 5 4 4
4 5 6 4 5 6 7 6 7 8 9 7 7 6 6 7 6 5 11 4 5 7 5 5 8 13 16 9 8 9 9 9 8 6 5 6 6 6 6 5 5 5 6 5
6 6 6 5 5 4 6 5 4 6 8 8 7 6 5 6 8 4 7 13 14 13 8 7 10 14 15 7 7 8 8 8 7 6 6 11 6 5 5 5 5 5 4 6
7 5 3 4 7 6 7 7 5 5 6 6 6 6 7 4 6 9 7 7 12 11 8 11 14 15 7 7 7 7 7 7 8 7 7 6 6 5 5 5 5 4 4 4
6 7 6 8 7 5 5 3 5 4 4 5 4 4 4 4 5 7 6 9 6 10 7 5 4 4 5 6 6 7 7 6 7 7 8 7 7 6 5 5 5 4 4 4
5 10 6 6 5 6 5 5 5 6 5 4 6 5 5 6 7 9 11 9 7 7 6 5 4 4 2 3 6 7 6 6 8 6 6 6 5 5 5 5 4 3 3 4
Wind_Direction
258 270 270 260 235 240 194 220 244 271 244 283 270 240 264 276 315 329 340 356 1 2 358 355 1 5 11 11 18 20 25 18 359 350 7 328 349 338 300 264 267 260 237 243
284 262 249 253 249 237 237 240 243 253 274 277 117 162 243 298 313 330 353 350 353 2 4 358 3 5 7 9 14 20 26 12 357 18 32 27 44 51 63 49 36 27 44 26
269 313 287 281 247 225 226 226 230 240 248 158 226 214 215 280 307 330 352 349 354 354 5 358 357 4 14 16 10 17 21 23 28 41 45 38 51 56 51 56 54 47 45 35
277 304 253 245 183 198 259 234 218 237 246 236 194 169 186 219 264 316 343 356 344 341 356 2 351 5 10 25 22 17 27 31 36 40 43 37 41 61 59 67 71 68 62 52
257 301 277 294 142 170 195 282 228 230 232 180 138 360 267 190 191 228 307 345 337 330 347 356 342 1 8 17 22 21 24 29 38 44 45 48 41 40 44 72 70 65 56 44
333 264 258 228 154 109 20 290 352 165 202 149 125 226 274 143 174 196 200 195 320 330 355 355 341 17 18 12 13 22 14 18 22 33 49 53 57 49 45 60 64 57 48 36
229 262 285 270 142 146 111 244 337 208 163 156 180 201 173 164 183 197 205 244 277 335 7 343 343 15 34 9 9 5 7 10 18 13 39 43 54 54 57 57 59 56 57 47
190 232 264 142 94 182 221 300 306 259 235 210 211 160 172 191 203 205 231 236 237 285 293 43 12 14 51 29 344 17 21 17 16 21 16 32 54 48 61 69 75 72 72 71
186 217 206 191 219 219 230 261 288 245 241 226 236 228 197 211 215 216 219 233 226 248 293 283 61 35 30 349 5 20 37 26 19 31 22 17 41 60 77 98 113 116 112 89
3 282 255 218 247 243 247 232 253 268 243 210 230 234 222 215 221 219 217 222 226 236 271 279 200 13 11 343 351 33 53 32 20 28 38 17 15 37 35 24 66 68 65 78
262 280 286 335 66 40 10 343 291 261 257 248 217 238 217 217 216 215 213 210 203 217 240 254 219 254 245 327 359 355 20 33 41 41 62 61 40 31 48 17 38 60 59 62
226 208 161 286 130 339 318 285 276 279 257 251 243 235 231 226 216 212 220 211 209 218 231 245 230 226 238 201 344 341 335 357 8 345 69 113 116 53 50 64 60 64 72 115
228 13 250 264 269 265 268 299 287 262 268 261 238 221 227 228 214 213 209 209 210 215 220 228 233 221 214 187 204 252 272 307 301 306 285 253 233 155 57 1 42 53 63 74
253 327 299 227 237 319 304 284 283 271 267 258 259 220 210 220 216 208 211 211 203 204 213 213 215 218 202 185 191 213 215 234 228 256 255 264 254 229 192 197 234 274 297 157
242 225 246 275 295 290 278 274 269 256 252 269 265 244 220 223 228 227 220 206 207 208 216 212 211 219 193 183 189 203 206 207 205 224 221 220 226 239 236 227 219 199 191 225
283 290 277 264 271 280 271 272 262 264 258 266 247 241 238 237 233 234 224 206 198 220 223 217 217 221 188 187 192 200 211 213 207 198 204 203 210 213 220 221 224 218 212 215
204 282 293 290 272 288 288 288 280 281 290 287 278 271 249 238 236 238 231 221 218 226 218 205 221 198 193 193 189 198 201 204 213 204 199 201 204 211 212 212 216 218 217 205
208 229 221 228 261 276 296 299 296 287 275 284 300 302 298 289 268 269 258 251 254 255 241 222 221 202 203 200 196 201 202 206 203 207 203 200 207 206 210 215 218 220 229 221
210 226 241 261 273 283 297 307 309 306 307 295 288 278 265 258 257 257 252 251 245 245 256 218 225 205 211 209 191 188 195 192 191 192 194 212 222 206 205 204 212 217 216 200
234 249 254 249 254 242 269 273 289 296 295 301 304 298 286 270 263 266 253 246 247 245 253 228 216 213 213 202 196 189 194 194 196 194 186 193 195 197 195 208 200 204 208 210
233 249 264 274 282 286 275 270 267 272 278 280 276 274 272 279 276 274 278 267 274 252 249 237 217 226 219 205 200 201 198 199 197 196 192 197 191 192 187 195 201 195 194 196
213 218 240 283 287 293 292 294 290 287 280 274 265 265 277 281 278 270 239 243 276 267 250 243 226 220 213 210 205 210 211 207 202 189 181 182 183 185 187 183 185 186 191 197
220 214 226 241 251 268 294 284 279 277 283 281 282 276 260 270 272 285 295 262 250 271 261 252 236 230 224 213 206 202 205 205 198 180 163 172 181 188 190 190 188 183 191 196
245 258 258 251 244 247 268 271 218 246 256 265 255 251 259 293 296 216 252 279 291 290 272 249 241 239 229 218 202 203 198 186 168 161 169 185 181 173 164 173 185 190 192 207
245 247 234 248 259 256 243 259 268 260 272 274 282 289 276 232 227 291 287 282 288 294 283 270 262 250 230 211 203 196 183 165 160 171 178 179 176 170 168 170 173 180 188 191
234 244 240 228 234 242 244 247 259 267 277 283 274 276 290 285 284 293 281 280 278 292 282 269 252 246 214 209 192 175 161 163 173 174 172 166 169 167 175 171 176 188 176 189
236 250 257 257 227 241 235 226 238 251 241 254 280 297 291 294 302 303 303 307 300 294 281 271 249 224 168 157 158 162 172 171 167 162 159 158 153 154 162 170 164 153 149 156